Regional Weather Roundup
Issued by NWS

Home | Current Version | Previous Version | Graphics & Text | Print | Product List | Glossary On
Versions: 1 2 3 4 5 6 7 8 9 10 11 12 13 14 15 16 17 18 19 20 21 22 23 24 25 26 27 28 29 30 31 32 33 34 35 36 37 38 39 40 41 42 43 44 45 46 47 48 49 50
000
ASUS43 KDMX 221001
RWRIA

WEATHER ROUNDUP FOR IOWA
NATIONAL WEATHER SERVICE DES MOINES IA
500 AM CDT MON MAY 22 2017

NOTE: "FAIR" INDICATES FEW OR NO CLOUDS BELOW 12,000 FEET WITH NO
SIGNIFICANT WEATHER AND/OR OBSTRUCTIONS TO VISIBILITY.

* - THESE STATIONS ARE NOT NWS STATIONS...THUS NOT UNDER NWS
QUALITY CONTROL.  THEY ALSO DO NOT REPORT WEATHER SUCH
AS PRECIPITATION OR FOG.

IAZ001>003-012>014-020>022-031>034-043>046-221100-
   NORTHWEST IOWA

CITY           SKY/WX    TMP DP  RH WIND       PRES   REMARKS
CARROLL *      CLOUDY    52  46  82 SW12      29.95F
CHEROKEE *     CLOUDY    52  47  81 SW7       29.93F
DENISON *      CLOUDY    52  45  76 VRB3      29.97F
LE MARS *      CLOUDY    52  46  82 S7        29.93F
ORANGE CITY *  CLOUDY    50  45  81 SW5       29.92F
SHELDON *      CLOUDY    52  45  76 SW9         N/A
SIOUX CITY     CLOUDY    54  45  71 W12       29.94F
SPENCER        LGT RAIN  52  45  77 SW20      29.93R
STORM LAKE *   CLOUDY    52  45  76 SW18      29.93F
$$

IAZ055>058-069>071-079>083-090>094-221100-
   SOUTHWEST IOWA

CITY           SKY/WX    TMP DP  RH WIND       PRES   REMARKS
ATLANTIC *     MOCLDY    46  43  87 SW7       29.99S
AUDUBON *      MOCLDY    54  45  71 SW10G17   29.98F
CLARINDA *     CLEAR     46  46 100 CALM      30.04F
COUNCIL BLFS * PTCLDY    55  46  71 SW13      29.98F
CRESTON *      CLEAR     48  45  87 S13       30.02F
HARLAN  *      CLOUDY    50  46  87 S12       30.00F
LAMONI         CLEAR     49  43  80 S10       30.03F
RED OAK *      MOCLDY    48  45  87 S6        30.01S
SHENANDOAH *   CLEAR     52  45  76 SW5       30.02F
$$

IAZ047>049-059>061-072>074-084-221100-
   CENTRAL IOWA

CITY           SKY/WX    TMP DP  RH WIND       PRES   REMARKS
AMES           CLEAR     48  43  82 SW12      29.96F
ANKENY *       CLEAR     50  43  76 SW8       29.98F
BOONE *        PTCLDY    48  45  87 SW10      29.95F
DES MOINES     PTCLDY    53  43  68 S12       29.98F
GRINNELL*      CLEAR     45  42  88 S9        30.00S
MARSHALLTOWN   CLEAR     45  42  89 SW9       29.96F
NEWTON *       CLEAR     48  43  81 SW9       29.98S
PELLA *        CLEAR     49  42  77 SW9       30.01F
PERRY *          N/A     50  45  82 SW14      29.97S
$$

IAZ004>006-015-016-023>025-035-036-221100-
   NORTH CENTRAL IOWA

CITY           SKY/WX    TMP DP  RH WIND       PRES   REMARKS
ALGONA *       CLOUDY    46  45  93 SW12      29.93R
CLARION *      CLOUDY    45  45 100 SW9       29.93F
ESTHERVILLE    CLOUDY    45  43  93 NW9       29.92R
FORT DODGE *   CLOUDY    48  43  81 SW8       29.94F
MASON CITY     PTCLDY    40  38  93 SW3       29.94F
FOREST CITY *    N/A     37  32  81 NE3       29.92F HAZE
WEBSTER CITY * MOCLDY    48  43  81 SW10      29.93S
IOWA FALLS *   MOCLDY    47  43  87 SW8       29.95F
$$

IAZ007>011-017>019-026>030-037>042-050>054-066-221100-
   NORTHEAST IOWA

CITY           SKY/WX    TMP DP  RH WIND       PRES   REMARKS
CEDAR RAPIDS   CLEAR     43  43 100 S6        29.98F
CHARLES CITY * CLEAR     41  41 100 SE3       29.95S
CLINTON *      CLEAR     42  40  92 SW8       30.02S
DECORAH *      CLEAR     43  41  93 CALM      29.93F
DUBUQUE        CLEAR     40  38  93 SW7       29.99F
MONTICELLO *   CLEAR     45  41  87 CALM      29.99F
OELWEIN *      CLEAR     41  41 100 S6        29.96F
WATERLOO       CLEAR     41  39  93 S5        29.95F
$$

IAZ064-065-067-068-078-221100-
   EAST CENTRAL IOWA

CITY           SKY/WX    TMP DP  RH WIND       PRES   REMARKS
DAVENPORT      CLEAR     46  41  82 S5        30.02S
IOWA CITY      CLEAR     42  39  89 CALM      30.02F
MT. PLEASANT * CLEAR     43  43  99 S7        30.04S
MUSCATINE *    CLEAR     46  43  87 S6        30.04S
QUAD CITIES    CLEAR     47  41  80 CALM      30.03S
$$

IAZ062-063-075>077-085>089-095>099-221100-
   SOUTHEAST IOWA

CITY           SKY/WX    TMP DP  RH WIND       PRES   REMARKS
BURLINGTON     CLEAR     47  46  97 S7        30.04F
FAIRFIELD *    CLEAR     45  43  93 S7        30.02S
FORT MADISON * CLEAR     48  46  93 S9        30.05S
KEOKUK *       CLEAR     48  46  93 SW6       30.05S
OSKALOOSA *      N/A     45  42  90 SW8       30.01F
OTTUMWA        CLEAR     46  43  89 S9        30.01F
WASHINGTON *   CLEAR     43  43 100 S5        30.03F
$$

ABBREVIATIONS USED IN REMARKS
   TC - TEMPERATURES IN CELSIUS
  WCI - WIND CHILL INDEX
   HX - HEAT INDEX
  VSB - VISIBILITY
$$




USA.gov is the U.S. government's official web portal to all federal, state and local government web resources and services.